Regional Weather Roundup
Issued by NWS Boston, MA

Home | Current Version | Previous Version | Text Only | Print | Product List | Glossary On
Versions: 1 2 3 4 5 6 7 8 9 10 11 12 13 14 15 16 17 18 19 20 21 22 23 24 25 26 27 28 29 30 31 32 33 34 35 36 37 38 39 40 41 42 43 44 45 46 47 48 49 50
000
ASUS41 KBOX 291310
RWRBOX

REGIONAL WEATHER ROUNDUP
NATIONAL WEATHER SERVICE TAUNTON MA
900 AM EDT WED JUL 29 2015

NOTE:  "FAIR" INDICATES FEW OR NO CLOUDS BELOW 12,000 FEET WITH NO
SIGNIFICANT WEATHER AND/OR OBSTRUCTIONS TO VISIBILITY.  THE FOLLOWING
OBSERVATION LOCATIONS DO NOT REPORT PRESENT WEATHER...PROVINCETOWN...
SMITHFIELD...BLOCK ISLAND...KEENE...AND OXFORD.

MAZALL-291400-
EASTERN MASSACHUSETTS

CITY           SKY/WX    TMP DP  RH WIND       PRES   REMARKS
BOSTON         MOSUNNY   81  68  64 SE5       29.96S
BEVERLY        SUNNY     81  66  60 N3        29.95F
LAWRENCE       SUNNY     80  67  64 CALM      29.98S
BEDFORD        SUNNY     80  68  66 W5        29.96S
BLUE HILL        N/A     80  67  64 NW5       29.98S
NORWOOD        SUNNY     80  70  71 CALM      29.96S
MARSHFIELD     SUNNY     81  70  69 SE3       29.97S
PLYMOUTH       SUNNY     83  69  62 W3        29.97S
TAUNTON        SUNNY     81  70  69 CALM      29.96S
NEW BEDFORD    SUNNY     83  71  67 CALM      29.95F
$$

MAZALL-291400-
CAPE COD AND THE ISLANDS

CITY           SKY/WX    TMP DP  RH WIND       PRES   REMARKS
FALMOUTH       SUNNY     81  68  65 N5        29.97S
HYANNIS        SUNNY     82  68  62 NW5       29.96R
CHATHAM        SUNNY     82  70  66 VRB3      29.97S
PROVINCETOWN   SUNNY     75  66  73 NW6       29.97S
NANTUCKET      SUNNY     83  70  64 NW8       29.96S
MARTHAS VNYRD  SUNNY     82  70  66 N7        29.97S
$$

MAZALL-291400-
CENTRAL AND WESTERN MASSACHUSETTS

CITY           SKY/WX    TMP DP  RH WIND       PRES   REMARKS
WORCESTER      SUNNY     79  66  64 W8        30.01S
FITCHBURG      SUNNY     83  67  58 NW3       29.99R
ORANGE         MOSUNNY   72  67  84 CALM      30.00R
SPRINGFIELD    SUNNY     75  69  81 W2        29.98S
WESTFIELD      SUNNY     76  68  76 CALM      29.99S
NORTH ADAMS    MOSUNNY   71  65  81 CALM      30.02S
PITTSFIELD     MOSUNNY   74  65  73 VRB3      30.03S
$$

RIZALL-291400-
RHODE ISLAND

CITY           SKY/WX    TMP DP  RH WIND       PRES   REMARKS
PROVIDENCE     PTSUNNY   81  70  69 CALM      29.97S
NEWPORT        SUNNY     82  68  62 N3        29.96F
BLOCK ISLAND   SUNNY     81  70  69 CALM      29.99S
SMITHFIELD     SUNNY     81  70  69 NW5       29.98S
WESTERLY       SUNNY     79  70  74 CALM      29.98S
$$

CTZALL-291400-
CONNECTICUT

CITY           SKY/WX    TMP DP  RH WIND       PRES   REMARKS
BRADLEY INTL   PTSUNNY   79  66  64 VRB5      29.98S
HARTFORD       SUNNY     78  69  73 CALM      29.97S
BRIDGEPORT     MOSUNNY   80  71  74 CALM      29.99R
DANBURY        MOSUNNY   78  68  71 CALM      30.02R
GROTON         SUNNY     79  70  74 CALM      29.97R
NEW HAVEN      SUNNY     81  68  64 CALM      29.98S
CHESTER        NOT AVBL
MERIDEN        SUNNY     81  66  60 CALM      29.98S
WILLIMANTIC    SUNNY     78  68  71 S3        29.98F
OXFORD         PTSUNNY   79  66  65 CALM      30.03R
$$

MEZ002-015-021-024-NHZ003-005-008-011-012-014-VTZ005-008-291400-
NORTHERN NEW ENGLAND

CITY           SKY/WX    TMP DP  RH WIND       PRES   REMARKS
PORTLAND ME    MOSUNNY   79  66  64 CALM      29.94F
BANGOR ME      MOSUNNY   74  64  71 CALM      29.94F
CONCORD NH     SUNNY     78  64  61 NW3       29.98S
MANCHESTER NH  PTSUNNY   80  64  58 NW3       29.96S
NASHUA NH      SUNNY     81  66  61 CALM        N/A
PORTSMOUTH NH  MOSUNNY   79  67  67 SW6       29.94F
JAFFREY NH     MOSUNNY   77  67  71 CALM      30.02R
KEENE NH       MOSUNNY   73  63  68 CALM      30.01R
BURLINGTON VT  MOSUNNY   79  65  62 S8        29.97R
MT. WASHINGTON FOG       57  57 100 NW22        N/A  VSB 0
$$

NYZ052-076-291400-
EASTERN NEW YORK

CITY           SKY/WX    TMP DP  RH WIND       PRES   REMARKS
ALBANY         PTSUNNY   77  64  64 CALM      30.00S
NEW YORK CITY  PTSUNNY   85  65  51 CALM      29.98R
$$

ANZALL-291400-
MARINE OBSERVATIONS

STATION/POSITION TIME  TEMP    WIND        PRES    VSBY  WAVE
                       AIR SEA DIR/SP/G                  HT/PER
                 (UTC) (F)     (DEG/KT/KT) (MB)    (MI)  (FT/S)
BOSTON BUOY      1250   71 69  140/  2/  2 1014.6R         1/ 7
BUZZARDS BAY     1200           30/  2/  2 1015.6R
NANTUCKET SOUND  1250   74 73  290/  6/  6 1014.4R         1
MASS BAY-STELLWA 1204   72 64  250/  2/  4   N/A    1 7/8  2/ 8
ISLE OF SHOALS   1200   70     260/  2/  2 1014.0R
S OF BLOCK IS    1208      72                N/A           2/11
$$

......................KEY.........................
  SKY/WX - SKY CONDITION/PRESENT WEATHER
  TMP    - TEMPERATURE IN FAHRENHEIT
  DWPT   - DEWPOINT IN FAHRENHEIT
  RH     - RELATIVE HUMIDITY IN PERCENT
  WIND   - DIRECTION AND SPEED IN MPH
  PRES   - MEAN SEA LEVEL PRESSURE IN INCHES OF HG
  WCI    - WIND CHILL INDEX
  VSB    - VISIBILITY IN MILES
  HX     - HEAT INDEX
  TC     - TEMPERATURE IN CELSIUS
  VRB    - VARIABLE WIND DIRECTION
  N/A    - NOT AVAILABLE


USA.gov is the U.S. government's official web portal to all federal, state and local government web resources and services.